SL-16 DEB, 39854

Orbit data source: Space-Track

SL-16 DEB, 39854 is space debris in LEO originally from a launch on Fri, 25 Dec 1992 UTC launched from the Tyuratam Missile And Space Complex (TTMTR). Debris objects in space refer to the collection of defunct objects orbiting the Earth. Examples of debris include non-operational satellites, rocket bodies, and fragments generated from explosions, collisions, or faulty payload assembly.

Loading next visibility...
Identifier
39854, 1992-093LG
Orbit
LEO
Country
Flag of CISCIS
Related business
Manufacturer
Unknown
Mission
Spacecraft
Bus & Motor
Unknown
Mass
Unknown
Launch date (UTC)
1992-12-25 (33 years ago)
Launch vehicle
Unknown
Launch site
Tyuratam Missile And Space Complex (TTMTR)
Object type
Payload
Rocket body
Debris
Shape & HBR
Unknown shape, 0.1 m
Radar Cross Section
Small (<0.1 m²)

Expand to show TLE details & history
Last TLE update: 1 week ago

TLE from 1 week ago
0 SL-16 DEB
1 39854U 92093LG  25298.34977995  .00001842  00000-0  87334-3 0  9994
2 39854  71.0122 323.7146 0075314 158.9981 201.4266 14.19391992587202
Epoch: 2025-10-25T08:23Z
TLE epoch observation values (Epoch: 2025-10-25T08:23:40.987Z)
Latitude
-0.00007°
Longitude
163.8122°
Altitude
880.395 km
Speed
7.386 km/s
True Right ascension
21h 34m 51s
True Declination
0° 00' 00"
Sunlit
Object was in daylight at epoch
Visualization orbit readout
Latitude
Unknown
Longitude
Unknown
Altitude
Unknown
Speed
Unknown
Apparent Right ascension
Unknown
Apparent Declination
Unknown
Sunlit
N/A
Visualization observer readout
Local Sidereal Time
13:58:17
Azimuth
Unknown
Elevation
Unknown
Doppler factor
Unknown
Orbital elements
Apogee altitude
879.581 km
Perigee altitude
771.077 km
Semi-major axis
7,203.466 km
Eccentricity
0.00753
Inclination
71.0122°
RAAN
323.7146°
Arg. of periapsis
158.9981°
True anomaly
201.11407°
Mean anomaly
201.4266°
Eccentric anomaly
201.27006°
Mean motion
3.55002 °/min
Orbital period
101.41 mins
BSTAR
0.00087334
Loading maneuver chart data...
Computing Atmospheric mass density...
Loading historical data...
Loading historical data...
Loading historical data...
Loading historical data...
Loading historical data...
Loading historical data...
Loading historical data...

Documentation

Showing up to 5 results
|